Overview Statistics Trail Chart Weather Telemetry Raw packets
 

This is the latest recevied weather packets stored in our database for station/object HS5XHC-1. If no packets are shown the sender has not sent any weather packets the latest 10 day(s).

<< 18 19 20 21 22 23 24 >>
Time Temp. Humidity Pressure Rain* Wind** Luminosity Snow
1777604393 30° C 52% 969 hPa - - 0 W/m² -
1777603769 29.44° C 54% 969 hPa - - 0 W/m² -
1777603125 28.89° C 54% 969 hPa - - 0 W/m² -
1777602494 28.33° C 54% 969 hPa - - 0 W/m² -
1777601870 28.33° C 57% 969 hPa - - 0 W/m² -
1777601246 27.78° C 58% 969 hPa - - 0 W/m² -
1777600622 27.22° C 60% 969 hPa - - 0 W/m² -
1777599998 27.22° C 57% 969 hPa - - 0 W/m² -
1777599374 27.22° C 59% 969 hPa - - 0 W/m² -
1777598750 26.67° C 59% 969 hPa - - 0 W/m² -
1777598126 26.67° C 59% 969 hPa - - 0 W/m² -
1777597513 26.11° C 61% 969 hPa - - 0 W/m² -
1777596878 27.22° C 57% 969 hPa - - 0 W/m² -
1777596254 27.22° C 57% 968 hPa - - 0 W/m² -
1777595630 27.22° C 57% 968 hPa - - 0 W/m² -
1777595006 26.67° C 58% 968 hPa - - 0 W/m² -
1777594382 26.67° C 58% 968 hPa - - 0 W/m² -
1777593758 26.67° C 60% 968 hPa - - 0 W/m² -
1777593134 26.11° C 59% 968 hPa - - 0 W/m² -
1777592510 26.67° C 57% 968 hPa - - 0 W/m² -
1777591886 27.22° C 57% 968 hPa - - 0 W/m² -
1777591262 27.22° C 57% 968 hPa - - 0 W/m² -
1777590638 27.78° C 56% 968 hPa - - 0 W/m² -
1777590014 27.78° C 57% 968 hPa - - 0 W/m² -
1777589390 27.22° C 58% 968 hPa - - 0 W/m² -

* Rain since midnight (hover to see other rain measurements)
** Current wind speed in m/s (hover to see current wind gust speed)